Location: B?lite?ti
(46.2833°N, 22.7333°E)
Time: 03:58:34
(UTC+00:00)

Cosmos 2278 Rocket - Pass Details

Date: 24 January 2021
Orbit: 840 x 847 km, 71.0° (Epoch: 26 February)

Event Time Altitude Azimuth Distance (km) Brightness Sun altitude
Rises 19:04:28 0° 237° (WSW) 3,394 5.9 -38.1°
Reaches altitude 10° 19:07:11 10° 248° (WSW) 2,464 5.1 -38.6°
Enters shadow 19:10:37 27° 281° (W) 1,584 4.0 -39.2°
